Date String (YYYY-MM-DD hh:mm:ss) UTC,Instrument flags,absolute air pressure of the measurement (hPa),sample flow rate (lpm),inlet stack bypass flow (lpm),air temperature of the measurement (°C),ambient temperature measured by the external sensor (°C),aerosol sample conditioner tube jacket temperature (°C),OPC LED temperature (°C),internal box temperature (°C),relative humidity of the measurement (%),span deviation,mass concentration of particles derived from Lorenz-Mie calculation of OPC scattering (μg/m³),mass concentration of particles derived from Lorenz-Mie calculation of OPC scattering (μg/m³),mass concentration of particles derived from Lorenz-Mie calculation of OPC scattering (μg/m³)
DateTimeUTC,F1_M11,P_M11,Q1_M11,Q2_M11,T1_M11,T2_M11,T3_M11,T4_M11,T5_M11,U1_M11,ZSPAN_M11,X2_M11,X0_M11,X1_M11
2023-07-14 20:00:00,SystemResetWarning,0833.9,5.00,000.00,029.0,027.7,000.0,037.3,030.6,34.2,-001.3,0008.22,0019.85,0006.90
2023-07-14 20:01:00,SystemResetWarning,0834.0,5.00,000.00,029.0,027.3,000.0,037.2,030.7,33.4,-001.3,0008.17,0019.49,0006.92
2023-07-14 20:02:00,SystemResetWarning,0833.9,4.99,000.00,029.0,025.7,000.0,037.1,030.4,32.8,-001.1,0008.15,0018.98,0006.93
2023-07-14 20:03:00,SystemResetWarning,0833.9,5.00,000.00,028.9,024.8,000.0,037.0,030.2,33.1,-001.2,0008.18,0019.26,0006.93
2023-07-14 20:04:00,SystemResetWarning,0833.8,5.01,000.00,028.8,024.9,000.0,037.0,030.1,33.3,-001.3,0008.19,0019.38,0006.93
2023-07-14 20:05:00,SystemResetWarning,0833.8,5.00,000.00,028.7,025.2,000.0,037.1,030.0,33.4,-001.2,0008.20,0019.71,0006.92
2023-07-14 20:06:00,SystemResetWarning,0833.7,5.00,000.00,028.7,025.7,000.0,037.1,030.1,33.4,-001.0,0008.20,0018.47,0006.93
2023-07-14 20:07:00,SystemResetWarning,0833.7,4.99,000.00,028.7,026.2,000.0,037.1,030.2,33.1,-000.6,0008.23,0018.24,0006.94
2023-07-14 20:08:00,SystemResetWarning,0833.8,5.01,000.00,028.8,026.6,000.0,037.2,030.3,33.3,-000.5,0008.23,0017.34,0006.93
2023-07-14 20:09:00,SystemResetWarning,0833.8,5.00,000.00,028.8,026.9,000.0,037.2,030.4,33.0,-000.8,0008.25,0017.78,0006.93
2023-07-14 20:10:00,SystemResetWarning,0833.8,5.00,000.00,028.8,027.2,000.0,037.2,030.5,32.5,-000.7,0008.27,0018.02,0006.92
2023-07-14 20:11:00,SystemResetWarning,0833.8,5.00,000.00,028.9,027.5,000.0,037.2,030.6,32.3,-000.7,0008.29,0017.49,0006.92
2023-07-14 20:12:00,SystemResetWarning,0833.8,5.00,000.00,028.9,027.7,000.0,037.3,030.7,32.5,-000.7,0008.32,0018.39,0006.92
2023-07-14 20:13:00,SystemResetWarning,0833.7,4.98,000.00,029.0,026.9,000.0,037.2,030.6,33.3,-001.0,0008.30,0019.17,0006.92
2023-07-14 20:14:00,SystemResetWarning,0833.6,5.00,000.00,028.9,025.7,000.0,037.1,030.4,33.5,-001.0,0008.29,0019.03,0006.93
2023-07-14 20:15:00,SystemResetWarning,0833.7,5.01,000.00,028.9,025.6,000.0,037.0,030.3,34.0,-000.8,0008.34,0019.47,0006.94
2023-07-14 20:16:00,SystemResetWarning,0833.7,5.01,000.00,028.8,025.9,000.0,037.1,030.2,33.2,-000.9,0008.33,0018.87,0006.94
2023-07-14 20:17:00,SystemResetWarning,0833.7,4.99,000.00,028.8,026.3,000.0,037.1,030.3,33.3,-000.8,0008.29,0019.13,0006.93
2023-07-14 20:18:00,SystemResetWarning,0833.7,5.00,000.00,028.8,026.7,000.0,037.2,030.4,33.4,-001.0,0008.25,0019.90,0006.91
2023-07-14 20:19:00,SystemResetWarning,0833.7,4.99,000.00,028.9,027.0,000.0,037.2,030.5,34.0,-000.8,0008.27,0019.78,0006.92
2023-07-14 20:20:00,SystemResetWarning,0833.7,5.00,000.00,028.9,027.3,000.0,037.3,030.6,33.7,-000.6,0008.24,0019.39,0006.92
2023-07-14 20:21:00,SystemResetWarning,0833.6,4.99,000.00,029.0,027.3,000.0,037.3,030.6,33.5,-000.6,0008.25,0019.21,0006.94
2023-07-14 20:22:00,SystemResetWarning,0833.6,5.00,000.00,028.9,025.9,000.0,037.1,030.5,33.1,-000.4,0008.27,0019.10,0006.94
2023-07-14 20:23:00,SystemResetWarning,0833.6,5.01,000.00,028.9,024.8,000.0,037.0,030.2,32.9,-000.3,0008.23,0018.03,0006.93
2023-07-14 20:24:00,SystemResetWarning,0833.5,5.01,000.00,028.8,024.7,000.0,037.0,030.0,33.3,-000.6,0008.23,0017.11,0006.92
2023-07-14 20:25:00,SystemResetWarning,0833.6,5.00,000.00,028.7,025.0,000.0,037.0,029.9,33.2,-000.7,0008.28,0017.26,0006.91
2023-07-14 20:26:00,SystemResetWarning,0833.5,5.00,000.00,028.7,025.5,000.0,037.1,030.0,33.2,-000.6,0008.28,0018.97,0006.90
2023-07-14 20:27:00,SystemResetWarning,0833.6,4.99,000.00,028.7,026.0,000.0,037.1,030.2,33.6,-000.5,0008.28,0019.22,0006.89
2023-07-14 20:28:00,SystemResetWarning,0833.6,5.00,000.00,028.7,026.4,000.0,037.1,030.3,33.1,-000.3,0008.26,0019.28,0006.89
2023-07-14 20:29:00,SystemResetWarning,0833.6,5.00,000.00,028.7,026.8,000.0,037.1,030.4,33.2,-000.2,0008.27,0018.50,0006.89
2023-07-14 20:30:00,SystemResetWarning,0833.6,4.99,000.00,028.8,027.1,000.0,037.2,030.5,33.7,-000.4,0008.26,0019.30,0006.88
2023-07-14 20:31:00,SystemResetWarning,0833.6,5.00,000.00,028.8,027.4,000.0,037.2,030.5,33.0,-000.6,0008.30,0020.71,0006.86
2023-07-14 20:32:00,SystemResetWarning,0833.5,5.00,000.00,028.9,027.7,000.0,037.2,030.6,32.8,-000.6,0008.30,0020.31,0006.84
2023-07-14 20:33:00,SystemResetWarning,0833.5,4.99,000.00,028.9,027.3,000.0,037.2,030.6,32.6,-000.5,0008.30,0020.47,0006.84
2023-07-14 20:34:00,SystemResetWarning,0833.5,5.00,000.00,028.9,025.7,000.0,037.0,030.4,32.8,-000.5,0008.30,0020.76,0006.85
2023-07-14 20:35:00,SystemResetWarning,0833.5,5.01,000.00,028.8,024.8,000.0,037.0,030.1,33.1,-000.3,0008.34,0021.14,0006.87
2023-07-14 20:36:00,SystemResetWarning,0833.4,4.99,000.00,028.7,024.9,000.0,037.0,030.0,35.0,0000.1,0008.30,0021.49,0006.88
2023-07-14 20:37:00,SystemResetWarning,0833.4,5.02,000.00,028.7,025.3,000.0,037.0,030.0,35.1,0000.1,0008.26,0020.13,0006.89
2023-07-14 20:38:00,SystemResetWarning,0833.4,5.01,000.00,029.0,025.7,000.0,037.1,030.3,34.8,-000.2,0008.29,0018.78,0006.91
2023-07-14 20:39:00,SystemResetWarning,0833.4,4.98,000.00,029.2,026.2,000.0,037.1,030.4,32.7,-000.4,0008.33,0018.61,0006.92
2023-07-14 20:40:00,SystemResetWarning,0833.4,5.02,000.00,029.3,026.6,000.0,037.1,030.5,32.3,-000.4,0008.37,0019.76,0006.94
2023-07-14 20:41:00,SystemResetWarning,0833.4,5.00,000.00,029.4,027.0,000.0,037.2,030.6,31.9,-000.8,0008.38,0019.50,0006.96
2023-07-14 20:42:00,SystemResetWarning,0833.5,5.00,000.00,029.5,027.3,000.0,037.3,030.7,32.3,-000.7,0008.35,0018.59,0006.98
2023-07-14 20:43:00,SystemResetWarning,0833.5,5.00,000.00,029.6,027.5,000.0,037.4,030.7,31.7,-000.5,0008.36,0020.25,0006.99
2023-07-14 20:44:00,SystemResetWarning,0833.4,4.99,000.00,029.6,027.8,000.0,037.5,030.8,32.1,-000.5,0008.38,0020.92,0006.99
2023-07-14 20:45:00,SystemResetWarning,0833.4,4.98,000.00,029.7,027.0,000.0,037.4,030.8,32.8,-001.1,0008.39,0021.82,0007.00
2023-07-14 20:46:00,SystemResetWarning,0833.4,5.01,000.00,029.7,025.4,000.0,037.4,030.6,32.5,-001.4,0008.36,0022.56,0006.97
2023-07-14 20:47:00,SystemResetWarning,0833.3,5.00,000.00,029.6,024.8,000.0,037.3,030.3,31.8,-001.4,0008.33,0022.97,0006.95
2023-07-14 20:48:00,SystemResetWarning,0833.3,5.00,000.00,029.5,025.0,000.0,037.4,030.2,32.0,-001.6,0008.30,0023.77,0006.93
2023-07-14 20:49:00,SystemResetWarning,0833.3,5.01,000.00,029.4,025.4,000.0,037.4,030.2,31.8,-001.0,0008.28,0023.96,0006.92
2023-07-14 20:50:00,SystemResetWarning,0833.3,5.00,000.00,029.4,025.9,000.0,037.5,030.3,31.9,-000.8,0008.23,0024.83,0006.89
2023-07-14 20:51:00,SystemResetWarning,0833.3,5.00,000.00,029.4,026.3,000.0,037.5,030.4,31.8,-000.5,0008.26,0025.19,0006.87
2023-07-14 20:52:00,SystemResetWarning,0833.3,5.00,000.00,029.4,026.7,000.0,037.6,030.5,32.3,-000.5,0008.21,0025.09,0006.83
2023-07-14 20:53:00,SystemResetWarning,0833.3,5.00,000.00,029.4,027.1,000.0,037.6,030.6,31.8,-000.3,0008.15,0024.75,0006.79
2023-07-14 20:54:00,SystemResetWarning,0833.3,5.00,000.00,029.5,027.4,000.0,037.6,030.7,31.7,-000.3,0008.11,0022.92,0006.77
2023-07-14 20:55:00,SystemResetWarning,0833.3,5.00,000.00,029.5,027.7,000.0,037.6,030.8,32.0,-000.8,0008.03,0021.39,0006.75
2023-07-14 20:56:00,SystemResetWarning,0833.3,5.00,000.00,029.5,027.8,000.0,037.7,030.9,32.3,-000.3,0007.97,0020.16,0006.72
2023-07-14 20:57:00,SystemResetWarning,0833.2,4.98,000.00,029.5,026.6,000.0,037.6,030.7,32.2,0000.2,0008.00,0019.47,0006.72
2023-07-14 20:58:00,SystemResetWarning,0833.2,5.00,000.00,029.5,025.2,000.0,037.5,030.5,32.8,-000.1,0008.05,0018.97,0006.74
2023-07-14 20:59:00,SystemResetWarning,0833.2,5.01,000.00,029.4,024.9,000.0,037.4,030.3,33.1,-000.2,0008.09,0018.54,0006.75
